This is the latest recevied weather packets stored in our database for station/object KB4MOX. If no packets are shown the sender has not sent any weather packets the latest 10 day(s).
| Time | Temp. | Humidity | Pressure | Rain* | Wind** | Luminosity | Snow |
|---|---|---|---|---|---|---|---|
| 1787615428 | 30.56° C | 47% | 1014.5 hPa | 0 mm | - | 13 W/m² | - |
| 1787615125 | 31.11° C | 45% | 1014.5 hPa | 0 mm | - | 17 W/m² | - |
| 1787614820 | 31.67° C | 44% | 1014.5 hPa | 0 mm | - | 21 W/m² | - |
| 1787614517 | 32.22° C | 43% | 1014.2 hPa | 0 mm | - | 25 W/m² | - |
| 1787614214 | 32.22° C | 43% | 1014.3 hPa | 0 mm | - | 31 W/m² | - |
| 1787613910 | 32.78° C | 42% | 1014.5 hPa | 0 mm | - | 33 W/m² | - |
| 1787613605 | 32.78° C | 40% | 1014.2 hPa | 0 mm | - | 38 W/m² | - |
| 1787613299 | 32.78° C | 40% | 1014.4 hPa | 0 mm | - | 46 W/m² | - |
| 1787612996 | 32.78° C | 40% | 1014.3 hPa | 0 mm | - | 54 W/m² | - |
| 1787612692 | 32.78° C | 39% | 1014.3 hPa | 0 mm | - | 66 W/m² | - |
| 1787612389 | 32.78° C | 40% | 1014.3 hPa | 0 mm | - | 74 W/m² | - |
| 1787612084 | 32.78° C | 40% | 1014.4 hPa | 0 mm | - | 61 W/m² | - |
| 1787611780 | 33.33° C | 39% | 1014.3 hPa | 0 mm | - | 44 W/m² | - |
| 1787611476 | 33.89° C | 39% | 1014.2 hPa | 0 mm | - | 104 W/m² | - |
| 1787611171 | 33.89° C | 38% | 1014.2 hPa | 0 mm | - | 136 W/m² | - |
| 1787610867 | 33.89° C | 38% | 1014.1 hPa | 0 mm | - | 152 W/m² | - |
| 1787610563 | 34.44° C | 37% | 1014.2 hPa | 0 mm | - | 163 W/m² | - |
| 1787610262 | 34.44° C | 37% | 1014.3 hPa | 0 mm | - | 179 W/m² | - |
| 1787609957 | 34.44° C | 37% | 1014.2 hPa | 0 mm | - | 187 W/m² | - |
| 1787609656 | 34.44° C | 36% | 1014 hPa | 0 mm | - | 209 W/m² | - |
| 1787609351 | 34.44° C | 35% | 1014.3 hPa | 0 mm | - | 238 W/m² | - |
| 1787609050 | 34.44° C | 35% | 1014.2 hPa | 0 mm | - | 257 W/m² | - |
| 1787608745 | 33.89° C | 36% | 1014.1 hPa | 0 mm | - | 266 W/m² | - |
| 1787608444 | 34.44° C | 35% | 1014.3 hPa | 0 mm | - | 133 W/m² | - |
| 1787608141 | 34.44° C | 34% | 1014.1 hPa | 0 mm | - | 288 W/m² | - |
* Rain latest hour (hover to see other rain measurements)
** Current wind speed in m/s (hover to see current wind gust speed)